Vertical_Velocity
-1 -6 -14 -9 -5 3 -3 12 -5 5 3 -3 -2 -3 17 -3 -2 1 2 -4 -4 -2 -1 1 3 3 2 -1 -2 -0 -2 0 0 -4 1 -2 -0 2 1 1 2 2 3 2
8 -9 -5 -3 10 13 -3 -8 -10 4 -7 -3 4 -3 3 0 0 4 -4 -1 -0 -1 -1 -2 -2 -2 -1 2 2 2 2 2 -3 3 3 3 2 3 2 2 1 4 4 3
-13 -20 10 8 0 -4 -9 8 18 7 -4 -4 -1 2 4 4 -1 -2 -1 -0 1 -0 -1 -1 -2 -1 -1 -2 -1 -0 -0 1 3 -3 -2 1 2 2 2 6 5 7 3 5
5 -5 6 -0 -3 -7 11 -3 1 -4 0 8 3 4 5 0 1 -4 -1 -1 -2 -2 -3 -1 -1 -3 -0 0 1 1 1 1 2 4 0 1 2 -0 5 3 1 0 -0 1
1 -0 -0 -5 -2 -1 2 -1 -1 -3 -1 2 2 2 1 -3 -1 -5 -3 -1 -3 -1 -1 -1 -2 -1 -0 -1 -1 -1 -0 1 1 1 1 2 1 1 2 1 -0 3 4 1
1 8 2 4 -4 -4 0 1 1 -2 -1 3 6 1 8 -9 -4 -3 -3 -2 -1 -1 -1 -1 -1 -2 -2 -2 -2 -1 -0 -0 -0 -1 -0 1 3 4 2 4 1 2 2 3
9 2 -5 -0 -0 -1 2 -1 3 2 4 -2 -3 2 -3 7 5 -5 -5 0 0 -0 -0 0 2 4 4 1 -0 -1 -1 -1 -0 0 0 -0 -1 -1 0 1 2 4 4 6
-5 2 -2 -0 -5 2 0 3 4 2 1 1 1 -3 7 8 2 -4 1 2 1 0 1 2 0 -1 -1 -1 -1 -2 -1 0 0 -0 1 1 1 1 1 1 2 1 0 1
0 -1 -1 -3 -0 4 -3 -4 0 -1 1 -0 1 -3 11 -5 1 3 2 -1 1 4 0 -3 -0 0 0 -1 -2 -1 1 2 2 2 3 3 3 2 1 1 1 0 0 -1
3 -8 2 2 4 0 0 -2 1 0 -1 -0 -1 -2 2 -2 -3 -2 2 -2 -2 1 -0 0 -1 -1 -1 -1 -2 -2 -2 -3 -3 -2 -2 -2 -0 2 2 1 1 3 4 2
-3 -1 -0 4 -0 1 -1 -1 -1 1 -1 0 -0 0 13 11 4 3 8 -2 -7 2 5 1 -0 -4 -3 -4 -4 -2 -3 -2 -1 -2 -1 -1 -0 -2 -0 -2 -2 -2 -2 -2
2 1 1 -3 2 1 -4 1 2 1 3 1 0 -10 6 -3 6 6 4 6 1 -1 1 0 1 -2 -3 -3 -3 -0 -1 -3 -3 -1 -1 -1 -2 -3 -4 -4 -0 1 0 -0
-2 5 -1 2 -1 -0 -2 -0 -0 -1 5 -6 1 -4 2 -1 1 -2 -4 -9 -5 -1 0 -6 -5 -7 -1 -1 -3 -0 -1 -3 -2 -4 -5 -4 -4 -4 -4 -2 -1 -3 -8 -2
-3 -3 -3 2 0 -1 -2 -2 -3 -0 1 -4 -15 -10 -13 10 4 4 14 10 4 -0 2 -0 1 4 3 0 -3 -1 -1 -3 -3 -1 -2 -3 -4 -3 -2 -3 -5 -4 -5 -6
0 -0 -3 -4 -1 -0 -2 -4 -2 -5 -4 6 -13 -1 -5 -4 6 2 0 2 2 3 -2 0 -0 -1 -2 -2 1 3 2 3 1 -1 -1 -1 -1 -1 -2 -3 -2 -2 -1 -2
-0 -1 -3 -5 -3 -0 -9 -1 0 -1 -8 -4 4 -30 19 -0 -6 1 5 1 -1 1 1 1 3 1 -0 0 -3 -2 -3 -3 -4 -3 -1 -2 -1 -3 -2 -2 -2 -3 0 -1
0 0 -2 -3 4 -2 -12 -3 -1 4 2 0 -5 -0 -2 11 5 -8 -5 4 1 -4 -7 -3 0 1 -3 -1 -2 -1 -3 -2 -3 -4 -4 -2 -3 -3 -3 -0 0 3 0 0
-3 -3 -4 -3 -3 0 -4 -3 -0 3 -1 0 2 -1 9 -3 -5 5 6 -1 5 -1 -5 3 1 2 2 1 2 2 -2 -2 -1 -1 -1 -2 -3 0 2 1 1 1 1 -0
0 -2 -4 -0 1 -10 -18 0 0 5 -15 -3 -12 -4 3 -10 4 4 -3 -4 -3 -5 1 -2 2 -0 -1 -3 -3 -5 -4 -3 -1 1 -1 -0 -0 1 1 -0 -2 1 -4 -1
1 1 -1 3 1 -2 4 5 2 1 -16 -1 4 4 7 8 -1 2 -4 -1 2 3 1 4 2 0 1 1 2 -0 -1 -3 -1 -1 -2 0 1 -1 1 -5 -3 -1 1 -2
0 -0 -4 5 0 -7 -1 7 -1 -3 -1 -4 -1 4 -2 -6 -1 -1 3 1 2 6 8 8 5 2 -1 -2 -2 -0 -0 -1 0 4 3 1 -3 -2 -2 -2 -3 -3 -1 -0
-0 -1 -5 6 2 -7 5 4 1 9 1 5 2 0 3 6 1 -2 1 -0 -2 0 -2 -2 -1 -0 -1 -1 1 0 2 -1 2 -3 -3 -4 -3 -3 -5 -5 -2 1 1 -4
-3 -5 10 4 -4 10 10 12 16 4 8 3 3 2 4 8 -1 -3 -4 1 -2 -0 1 -3 0 3 3 -0 -3 -3 -5 -0 -4 -5 -2 -1 2 -3 -2 -9 -6 -9 -1 -1
1 2 -4 8 -16 2 -4 5 5 -5 -4 1 3 3 4 4 7 2 -0 3 -0 -1 -1 -2 -0 -0 3 -0 -3 -3 -3 -5 -6 -3 1 -1 -7 -8 -3 -4 -4 -7 -3 -3
5 4 6 -6 -6 6 2 2 1 -3 -1 3 1 3 -1 -0 -3 2 4 1 -2 -1 -1 -2 -1 2 -2 -5 0 2 -4 -4 -2 -1 -4 -5 -6 -6 -11 -2 -5 -3 3 0
9 5 2 -8 9 9 5 2 -2 -3 -1 -0 -6 -4 -2 -3 -1 -1 -3 -6 2 3 -0 2 1 -3 0 2 -1 -2 -3 -3 -4 -6 -9 -6 -9 -5 -4 -8 -13 9 3 1
Height
3098 3104 3105 3111 3115 3117 3120 3119 3121 3122 3119 3120 3120 3120 3122 3119 3118 3118 3118 3116 3116 3117 3118 3119 3119 3118 3118 3116 3114 3113 3111 3111 3110 3108 3109 3109 3109 3109 3108 3108 3108 3107 3107 3105
3098 3100 3106 3111 3115 3117 3118 3120 3121 3119 3117 3118 3118 3118 3117 3115 3114 3115 3112 3114 3115 3115 3116 3116 3116 3116 3115 3113 3112 3110 3108 3106 3104 3103 3104 3105 3105 3105 3104 3105 3104 3104 3102 3101
3094 3101 3106 3110 3111 3114 3117 3120 3119 3117 3116 3115 3116 3116 3115 3114 3113 3112 3112 3113 3114 3114 3114 3114 3114 3113 3112 3110 3109 3107 3105 3103 3100 3098 3097 3099 3099 3099 3098 3099 3098 3097 3095 3094
3097 3100 3105 3106 3109 3114 3118 3118 3117 3115 3115 3115 3114 3114 3114 3113 3113 3112 3112 3113 3113 3113 3113 3113 3111 3110 3109 3107 3106 3104 3102 3099 3097 3096 3093 3093 3093 3093 3093 3092 3091 3091 3089 3088
3094 3099 3100 3105 3111 3114 3116 3116 3115 3114 3113 3114 3112 3113 3110 3110 3111 3111 3111 3111 3112 3112 3111 3110 3109 3108 3106 3104 3103 3101 3099 3097 3095 3093 3091 3091 3090 3089 3088 3086 3084 3083 3082 3080
3091 3095 3102 3108 3110 3113 3114 3114 3113 3112 3112 3112 3108 3110 3109 3105 3106 3107 3108 3110 3110 3109 3108 3107 3106 3105 3103 3102 3100 3099 3097 3095 3093 3091 3089 3088 3086 3084 3082 3080 3077 3076 3074 3071
3092 3097 3102 3106 3109 3112 3112 3111 3110 3113 3112 3108 3106 3107 3105 3106 3106 3105 3107 3108 3107 3106 3106 3105 3104 3103 3102 3100 3099 3097 3094 3092 3090 3088 3086 3083 3081 3079 3076 3073 3071 3068 3066 3063
3092 3100 3102 3104 3107 3109 3108 3109 3109 3109 3107 3105 3105 3104 3103 3104 3104 3102 3105 3104 3104 3104 3103 3101 3100 3099 3098 3097 3096 3093 3092 3089 3087 3085 3082 3079 3076 3074 3071 3067 3064 3061 3058 3055
3090 3096 3099 3102 3104 3107 3105 3107 3108 3107 3105 3105 3102 3102 3102 3100 3100 3101 3102 3101 3100 3100 3099 3098 3096 3095 3093 3091 3089 3087 3084 3082 3080 3077 3075 3072 3069 3066 3063 3060 3056 3053 3050 3047
3089 3094 3099 3101 3102 3103 3103 3105 3108 3106 3106 3105 3099 3098 3098 3096 3097 3098 3098 3098 3095 3095 3095 3094 3092 3090 3087 3085 3083 3080 3077 3074 3071 3069 3066 3064 3061 3058 3054 3051 3048 3045 3042 3039
3088 3091 3097 3099 3099 3099 3102 3102 3104 3104 3103 3103 3101 3098 3097 3096 3096 3097 3096 3094 3093 3094 3093 3091 3088 3085 3082 3079 3076 3073 3070 3068 3065 3062 3059 3056 3052 3049 3046 3042 3039 3035 3032 3028
3087 3090 3092 3095 3096 3097 3098 3100 3102 3102 3102 3102 3101 3097 3095 3094 3097 3096 3096 3094 3090 3090 3087 3084 3081 3078 3074 3071 3068 3068 3064 3060 3057 3054 3050 3047 3044 3041 3037 3034 3030 3025 3021 3018
3086 3088 3091 3094 3097 3095 3096 3098 3098 3099 3099 3100 3102 3095 3093 3093 3094 3094 3092 3086 3083 3081 3080 3077 3075 3071 3069 3065 3061 3061 3057 3052 3049 3046 3042 3039 3035 3031 3027 3024 3020 3015 3011 3008
3085 3087 3088 3090 3090 3092 3093 3095 3096 3097 3097 3094 3092 3090 3091 3091 3090 3090 3089 3083 3079 3076 3074 3073 3069 3066 3062 3058 3054 3053 3049 3045 3041 3037 3033 3028 3024 3020 3016 3011 3008 3004 3000 2996
3085 3086 3087 3088 3089 3090 3091 3091 3091 3090 3088 3089 3084 3086 3083 3085 3085 3082 3080 3077 3075 3071 3067 3064 3060 3058 3054 3050 3047 3044 3040 3037 3032 3029 3024 3018 3015 3010 3005 3000 2995 2991 2988 2984
3083 3084 3085 3086 3087 3087 3086 3083 3083 3082 3080 3080 3080 3076 3079 3079 3077 3075 3074 3070 3067 3064 3059 3057 3054 3050 3047 3044 3040 3037 3034 3029 3024 3019 3014 3008 3003 2997 2992 2987 2982 2978 2974 2969
3081 3083 3083 3083 3084 3083 3080 3074 3073 3073 3073 3073 3071 3073 3074 3074 3071 3067 3067 3066 3061 3054 3051 3051 3047 3044 3040 3037 3033 3029 3025 3019 3013 3007 3002 2997 2992 2986 2981 2976 2970 2965 2960 2955
3078 3081 3082 3080 3081 3081 3072 3070 3069 3069 3068 3069 3068 3068 3069 3066 3065 3064 3060 3057 3056 3048 3043 3042 3040 3036 3033 3028 3024 3019 3013 3008 3002 2997 2992 2988 2983 2978 2972 2966 2960 2954 2949 2944
3075 3077 3080 3078 3077 3071 3066 3065 3065 3064 3064 3065 3063 3062 3062 3059 3059 3057 3052 3048 3046 3044 3039 3035 3031 3027 3021 3016 3010 3006 3001 2997 2992 2987 2982 2977 2971 2965 2959 2953 2948 2942 2935 2930
3072 3074 3076 3074 3073 3069 3062 3061 3062 3061 3057 3056 3058 3057 3056 3054 3051 3046 3042 3038 3037 3035 3031 3028 3023 3017 3011 3006 3001 2996 2992 2988 2983 2978 2972 2967 2961 2955 2948 2941 2936 2930 2924 2917
3069 3069 3068 3067 3067 3062 3059 3058 3058 3060 3060 3053 3052 3049 3047 3044 3042 3039 3033 3030 3028 3025 3022 3017 3011 3006 3001 2997 2993 2988 2984 2980 2974 2969 2963 2958 2951 2944 2936 2930 2925 2918 2912 2906
3066 3064 3062 3062 3064 3059 3057 3057 3060 3057 3051 3047 3042 3039 3038 3037 3034 3030 3026 3024 3022 3017 3012 3007 3003 2998 2993 2989 2985 2981 2976 2972 2966 2961 2955 2949 2941 2933 2926 2918 2911 2905 2897 2891
3059 3057 3059 3058 3055 3054 3053 3054 3050 3044 3040 3036 3035 3033 3030 3028 3022 3020 3018 3015 3010 3007 3001 2998 2995 2991 2986 2981 2977 2972 2968 2961 2955 2951 2944 2937 2930 2924 2917 2909 2901 2894 2888 2880
3049 3052 3048 3050 3047 3047 3046 3046 3037 3033 3031 3028 3025 3025 3023 3019 3014 3011 3007 3003 3000 2996 2993 2989 2986 2983 2978 2973 2969 2964 2958 2952 2946 2941 2934 2926 2920 2914 2908 2901 2894 2886 2880 2872
3044 3044 3040 3038 3038 3037 3036 3032 3025 3022 3020 3017 3015 3014 3012 3009 3005 3001 2998 2993 2989 2985 2983 2980 2976 2974 2970 2965 2960 2954 2948 2942 2937 2931 2924 2918 2910 2903 2897 2891 2883 2876 2871 2864
3034 3034 3031 3027 3029 3025 3023 3022 3016 3014 3011 3006 3004 3002 3000 2996 2993 2990 2987 2983 2979 2976 2973 2971 2967 2964 2961 2957 2951 2946 2939 2932 2926 2920 2913 2906 2898 2891 2885 2879 2873 2871 2863 2857